Location: ??????????
(54.7560°N, 39.1389°E)
Time: 03:04:52
(UTC+00:00)

USA 229 DEB - Pass Details

Date: 19 May 2025
Orbit: 872 x 1339 km, 63.4° (Epoch: 14 June)

Event Time Altitude Azimuth Distance (km) Brightness Sun altitude
Exits shadow 21:33:21 19° 209° (SSW) 2,102 4.7 -15.2°
Maximum altitude 21:37:56 66° 131° (SE) 1,090 3.6 -15.2°
Drops below altitude 10° 21:44:46 10° 51° (NE) 2,955 6.7 -15.1°
Sets 21:47:37 0° 49° (NE) 3,988 7.5 -15.0°
